COSMOS 970 DEB, 64987

Orbit data source: Space-Track

COSMOS 970 DEB, 64987 is space debris in LEO originally from a launch on Wed, 21 Dec 1977 UTC launched from the Tyuratam Missile And Space Complex (TTMTR). Debris objects in space refer to the collection of defunct objects orbiting the Earth. Examples of debris include non-operational satellites, rocket bodies, and fragments generated from explosions, collisions, or faulty payload assembly.

Loading next visibility...
Identifier
64987, 1977-121CY
Orbit
LEO
Country
Flag of CISCIS
Related business
Manufacturer
Unknown
Mission
Spacecraft
Bus & Motor
Unknown
Mass
Unknown
Launch date (UTC)
1977-12-21 (48 years ago)
Launch vehicle
Unknown
Launch site
Tyuratam Missile And Space Complex (TTMTR)
Object type
Payload
Rocket body
Debris
Shape & HBR
Unknown shape, 0.1 m
Radar Cross Section
Medium (>0.1 m² and <1 m²)

Expand to show TLE details & history
Last TLE update: 4 days ago

TLE from 4 days ago
0 COSMOS 970 DEB
1 64987U 77121CY  26167.37747159  .00000022  00000-0  12528-3 0  9992
2 64987  65.8428 193.1223 0127380 248.3184 129.3107 13.60864898624166
Epoch: 2026-06-16T09:03Z
TLE epoch observation values (Epoch: 2026-06-16T09:03:33.545Z)
Latitude
17.05502°
Longitude
160.45029°
Altitude
1,094.436 km
Speed
7.277 km/s
True Right ascension
13h 23m 57s
True Declination
16° 57' 47"
Sunlit
Object was in daylight at epoch
Visualization orbit readout
Latitude
Unknown
Longitude
Unknown
Altitude
Unknown
Speed
Unknown
Apparent Right ascension
Unknown
Apparent Declination
Unknown
Sunlit
N/A
Visualization observer readout
Local Sidereal Time
07:12:33
Azimuth
Unknown
Elevation
Unknown
Doppler factor
Unknown
Orbital elements
Apogee altitude
1,125.455 km
Perigee altitude
936.698 km
Semi-major axis
7,409.213 km
Eccentricity
0.01274
Inclination
65.8428°
RAAN
193.1223°
Arg. of periapsis
248.3184°
True anomaly
130.42872°
Mean anomaly
129.3107°
Eccentric anomaly
129.87084°
Mean motion
3.40318 °/min
Orbital period
105.78 mins
BSTAR
0.00012528
Loading maneuver chart data...
Computing Atmospheric mass density...
Loading historical data...
Loading historical data...
Loading historical data...
Loading historical data...
Loading historical data...
Loading historical data...
Loading historical data...

Documentation

Showing up to 5 results
|